EW3759 Weather Reports


time (UTC)temp
F
wind
direction
speed
knots
gust
knots
rain 1hr
in
rain 24hr
in
rain mn
in
humidity
%
barometer
mb
20260507192017 77 248 3.5 7.0 0.00 0.00 0.00 54 1017.0
20260507191517 76 293 2.6 7.8 0.00 0.00 0.00 54 1017.1
20260507191017 76 293 2.6 7.8 0.00 0.00 0.00 52 1017.1
20260507190517 76 203 2.6 5.2 0.00 0.00 0.00 54 1017.2
20260507190016 76 248 2.6 7.0 0.00 0.00 0.00 55 1017.2
20260507185517 75 248 3.5 7.0 0.00 0.00 0.00 55 1017.3
20260507185017 75 315 2.6 6.1 0.00 0.00 0.00 56 1017.3
20260507184517 75 225 3.5 6.1 0.00 0.00 0.00 55 1017.4
20260507184016 75 225 2.6 6.1 0.00 0.00 0.00 58 1017.5
20260507183517 74 203 2.6 6.1 0.00 0.00 0.00 58 1017.4
20260507183017 74 203 2.6 5.2 0.00 0.00 0.00 56 1017.4
20260507182557 74 248 2.6 7.0 0.00 0.00 0.00 58 1017.5
20260507182017 74 315 2.6 6.1 0.00 0.00 0.00 56 1017.5
20260507181517 74 315 2.6 6.1 0.00 0.00 0.00 58 1017.7
20260507181016 74 180 2.6 4.3 0.00 0.00 0.00 60 1017.6
20260507180517 72 0.0 2.6 0.00 0.00 0.00 62 1017.7
20260507180016 72 90 0.9 3.5 0.00 0.00 0.00 62 1017.6
20260507175516 72 90 0.9 2.6 0.00 0.00 0.00 63 1017.8
20260507175037 71 0 0.9 1.7 0.00 0.00 0.00 63 1017.7
20260507174516 71 293 0.9 3.5 0.00 0.00 0.00 62 1017.8
20260507174016 71 293 1.7 3.5 0.00 0.00 0.00 64 1017.9
20260507173517 70 203 0.9 3.5 0.00 0.00 0.00 64 1017.8
20260507173017 69 23 1.7 2.6 0.00 0.00 0.00 67 1017.8
20260507172516 69 225 1.7 3.5 0.00 0.00 0.00 66 1017.8
20260507172016 69 203 1.7 5.2 0.00 0.00 0.00 67 1017.7
20260507171517 67 315 0.9 3.5 0.00 0.00 0.00 69 1017.8
20260507171016 67 315 0.9 2.6 0.00 0.00 0.00 66 1017.9
20260507170517 67 315 1.7 3.5 0.00 0.00 0.00 67 1017.9
20260507170036 66 293 1.7 4.3 0.00 0.00 0.00 70 1018.0
20260507165516 66 270 1.7 3.5 0.00 0.00 0.00 76 1018.0
20260507165016 65 248 1.7 3.5 0.00 0.00 0.00 77 1017.9
20260507164516 64 315 1.7 4.3 0.00 0.00 0.00 80 1018.1
20260507164017 64 293 1.7 4.3 0.00 0.00 0.00 83 1018.2
20260507163516 63 338 0.9 3.5 0.00 0.00 0.00 84 1018.3
20260507163017 63 315 1.7 5.2 0.00 0.00 0.00 85 1018.4
20260507162517 63 315 1.7 5.2 0.00 0.00 0.00 88 1018.4
20260507162037 62 225 0.9 2.6 0.00 0.00 0.00 89 1018.5
20260507161517 61 225 0.9 2.6 0.00 0.00 0.00 91 1018.5
20260507161016 60 225 0.9 3.5 0.00 0.00 0.00 91 1018.5
20260507160516 60 270 0.9 2.6 0.00 0.00 0.00 93 1018.7
20260507160017 60 0.0 1.7 0.00 0.00 0.00 93 1018.7
20260507155516 59 270 0.9 1.7 0.00 0.00 0.00 94 1018.6
20260507155017 59 270 0.9 1.7 0.00 0.00 0.00 94 1018.7
20260507154517 59 270 0.9 2.6 0.00 0.00 0.00 95 1018.7
20260507154016 59 68 0.9 1.7 0.00 0.00 0.00 96 1018.6
20260507153516 59 0.0 1.7 0.00 0.00 0.00 96 1018.7
20260507153017 58 68 0.9 2.6 0.00 0.00 0.00 96 1018.6
20260507152516 58 68 0.9 2.6 0.00 0.00 0.00 96 1018.6
20260507152057 57 68 0.9 1.7 0.00 0.00 0.00 96 1018.5
20260507151516 57 68 0.9 2.6 0.00 0.00 0.00 96 1018.6
20260507151017 57 68 0.9 2.6 0.00 0.00 0.00 97 1018.6
20260507150516 57 68 0.9 2.6 0.00 0.00 0.00 97 1018.5
20260507150016 57 135 0.9 2.6 0.00 0.00 0.00 97 1018.4
20260507145517 56 0.0 0.0 0.00 0.00 0.00 97 1018.4
20260507145016 56 0.0 0.9 0.00 0.00 0.00 97 1018.4
20260507144516 56 135 0.9 2.6 0.00 0.00 0.00 97 1018.5
20260507144016 56 135 0.9 2.6 0.00 0.00 0.00 97 1018.6
20260507143516 56 135 0.9 2.6 0.00 0.00 0.00 97 1018.5
20260507143016 56 0.0 0.9 0.00 0.00 0.00 97 1018.3
20260507142517 56 0.0 0.9 0.00 0.00 0.00 97 1018.2
20260507142056 56 113 0.9 1.7 0.00 0.00 0.00 97 1018.2
20260507141517 55 0.0 1.7 0.00 0.00 0.00 97 1018.2
20260507141016 55 0.0 0.0 0.00 0.00 0.00 97 1018.2
20260507140516 55 0.0 0.9 0.00 0.00 0.00 97 1018.2
20260507140016 54 0.0 0.9 0.00 0.00 0.00 97 1018.2
20260507135536 54 0.0 0.9 0.00 0.00 0.00 97 1018.0
20260507135016 53 0.0 0.9 0.00 0.00 0.00 96 1018.0
20260507134516 53 0.0 0.9 0.00 0.00 0.00 96 1018.0
20260507134016 53 0.0 0.0 0.00 0.00 0.00 96 1018.1
20260507133516 52 0.0 0.0 0.00 0.00 0.00 96 1018.1
20260507133016 52 0.0 0.0 0.00 0.00 0.00 96 1018.0
20260507132516 52 0.0 0.9 0.00 0.00 0.00 96 1017.9
20260507132017 52 0.0 0.9 0.00 0.00 0.00 96 1017.9
20260507131517 52 113 0.9 1.7 0.00 0.00 0.00 96 1018.0
20260507131016 52 0.0 1.7 0.00 0.00 0.00 96 1017.9
20260507130516 52 0.0 1.7 0.00 0.00 0.00 96 1017.8
20260507130016 52 0.0 0.0 0.00 0.00 0.00 96 1017.7
20260507125537 52 0.0 0.0 0.00 0.00 0.00 96 1017.7
20260507125016 52 0.0 0.0 0.00 0.00 0.00 96 1017.5
20260507124656 52 0.0 0.9 0.00 0.00 0.00 96 1017.5
20260507124016 52 0.0 1.7 0.00 0.00 0.00 96 1017.4
20260507123536 53 0.0 1.7 0.00 0.00 0.00 96 1017.4
20260507123016 53 0.0 0.0 0.00 0.00 0.00 96 1017.5
20260507122516 53 0.0 0.0 0.00 0.00 0.00 96 1017.5
20260507122016 53 0.0 0.0 0.00 0.00 0.00 96 1017.5
20260507121516 52 0.0 0.0 0.00 0.00 0.00 96 1017.4
20260507121016 52 0.0 0.0 0.00 0.00 0.00 96 1017.4
20260507120516 52 0.0 0.0 0.00 0.00 0.00 96 1017.4
20260507120016 52 0.0 0.0 0.00 0.00 0.00 96 1017.4
20260507115557 52 0.0 0.0 0.00 0.00 0.00 96 1017.5
20260507115016 52 0.0 0.0 0.00 0.00 0.00 96 1017.6
20260507114516 51 0.0 0.0 0.00 0.00 0.00 96 1017.5
20260507114016 51 0.0 0.0 0.00 0.00 0.00 96 1017.5
20260507113536 51 0.0 0.0 0.00 0.00 0.00 96 1017.5
20260507113016 51 0.0 0.0 0.00 0.00 0.00 96 1017.5
20260507112516 51 0.0 0.0 0.00 0.00 0.00 95 1017.4
20260507112016 51 0.0 0.0 0.00 0.00 0.00 95 1017.6
20260507111516 51 0.0 0.0 0.00 0.00 0.00 95 1017.7
20260507111016 51 0.0 0.0 0.00 0.00 0.00 95 1017.6
20260507110516 51 0.0 0.0 0.00 0.00 0.00 95 1017.6
20260507110016 51 0.0 0.0 0.00 0.00 0.00 95 1017.6
20260507105516 51 0.0 0.0 0.00 0.00 0.00 95 1017.7
20260507105016 51 0.0 0.0 0.00 0.00 0.00 95 1017.7
20260507104516 51 0.0 0.0 0.00 0.00 0.00 95 1017.7
20260507104016 51 0.0 0.0 0.00 0.00 0.00 95 1017.7
20260507103536 52 0.0 0.0 0.00 0.00 0.00 95 1017.9
20260507103016 51 0.0 0.0 0.00 0.00 0.00 95 1017.8
20260507102516 51 0.0 0.0 0.00 0.00 0.00 95 1017.9
20260507102037 51 0.0 0.0 0.00 0.00 0.00 95 1017.9
20260507101517 51 0.0 0.0 0.00 0.00 0.00 95 1018.0
20260507101036 51 0.0 0.0 0.00 0.00 0.00 94 1018.0
20260507100516 51 0.0 0.0 0.00 0.00 0.00 94 1018.0
20260507100016 52 0.0 0.0 0.00 0.00 0.00 94 1018.1
20260507095516 52 0.0 0.0 0.00 0.00 0.00 94 1018.1
20260507095016 52 0.0 0.0 0.00 0.00 0.00 94 1018.1
20260507094516 52 0.0 0.0 0.00 0.00 0.00 94 1018.1
20260507094016 52 0.0 0.0 0.00 0.00 0.00 94 1018.2
20260507093516 52 0.0 0.0 0.00 0.00 0.00 94 1018.3
20260507093016 52 0.0 0.0 0.00 0.00 0.00 94 1018.2
20260507092516 52 0.0 0.0 0.00 0.00 0.00 94 1018.2
20260507092016 52 0.0 0.0 0.00 0.00 0.00 94 1018.3
20260507091516 52 0.0 0.0 0.00 0.00 0.00 94 1018.3
20260507091016 53 0.0 0.0 0.00 0.00 0.00 94 1018.5
20260507090536 53 0.0 0.0 0.00 0.00 0.00 94 1018.6
20260507090016 53 0.0 0.0 0.00 0.00 0.00 93 1018.5
20260507085516 53 0.0 0.9 0.00 0.00 0.00 93 1018.5
20260507085016 53 0.0 0.0 0.00 0.00 0.00 93 1018.6
20260507084516 53 0.0 0.0 0.00 0.00 0.00 93 1018.7
20260507084016 53 0.0 0.9 0.00 0.00 0.00 93 1018.7
20260507083516 53 0.0 0.0 0.00 0.00 0.00 93 1018.7
20260507083036 53 0.0 0.0 0.00 0.00 0.00 93 1018.9
20260507082516 53 0.0 0.0 0.00 0.00 0.00 93 1018.8
20260507082016 53 0.0 0.9 0.00 0.00 0.00 93 1018.9
20260507081517 53 0.0 0.0 0.00 0.00 0.00 93 1018.9
20260507081016 53 0.0 0.9 0.00 0.00 0.00 92 1019.0
20260507080556 53 0.0 0.9 0.00 0.00 0.00 92 1018.9
20260507080036 53 0.0 0.9 0.00 0.00 0.00 92 1019.0
20260507075516 54 0.0 0.0 0.00 0.00 0.00 92 1019.0
20260507075016 53 0.0 0.0 0.00 0.00 0.00 92 1019.0
20260507074516 54 0.0 0.0 0.00 0.00 0.00 92 1019.0
20260507074016 54 0.0 0.0 0.00 0.00 0.00 92 1019.0
20260507073516 54 0.0 0.0 0.00 0.00 0.00 92 1019.0
20260507073016 54 0.0 0.0 0.00 0.00 0.00 92 1019.0
20260507072536 54 0.0 0.0 0.00 0.00 0.00 92 1019.0
20260507072016 54 0.0 0.0 0.00 0.00 0.00 91 1019.0
20260507071536 54 0.0 0.0 0.00 0.00 0.00 91 1019.0
20260507071016 54 0.0 0.0 0.00 0.00 0.00 91 1019.1
20260507070516 54 0.0 0.9 0.00 0.00 0.00 91 1019.1
20260507070015 54 0.0 0.9 0.00 0.00 0.00 91 1019.1
20260507065516 55 0.0 0.0 0.00 0.00 0.00 91 1019.3
20260507065016 55 0.0 0.9 0.00 0.00 0.00 91 1019.3
20260507064516 55 0.0 0.9 0.00 0.00 0.00 91 1019.3
20260507064015 55 0.0 1.7 0.00 0.00 0.00 91 1019.3
20260507063515 55 0.0 2.6 0.00 0.00 0.00 91 1019.3
20260507063015 55 113 0.9 2.6 0.00 0.00 0.00 90 1019.3
20260507062516 55 0.0 0.9 0.00 0.00 0.00 90 1019.3
20260507062016 55 0.0 0.0 0.00 0.00 0.00 91 1019.3
20260507061515 55 0.0 3.5 0.00 0.00 0.00 90 1019.3
20260507061016 55 0.0 1.7 0.00 0.00 0.00 90 1019.2
20260507060516 56 0.0 0.0 0.00 0.00 0.00 90 1019.3
20260507060036 56 0.0 0.0 0.00 0.00 0.00 90 1019.3
20260507055516 56 0.0 0.0 0.00 0.00 0.00 90 1019.3
20260507055015 56 0.0 1.7 0.00 0.00 0.00 90 1019.2
20260507054535 56 0.0 0.0 0.00 0.00 0.00 90 1019.1
20260507054016 56 0.0 0.0 0.00 0.00 0.00 89 1019.2
20260507053515 56 0.0 0.9 0.00 0.00 0.00 89 1019.1
20260507053015 56 0.0 0.0 0.00 0.00 0.00 89 1019.1
20260507052535 56 0.0 0.0 0.00 0.00 0.00 89 1019.1
20260507052015 56 0.0 1.7 0.00 0.00 0.00 89 1019.1
20260507051516 56 0.0 0.9 0.00 0.00 0.00 88 1019.1
20260507051015 57 0.0 1.7 0.00 0.00 0.00 88 1019.2
20260507050515 57 68 0.9 2.6 0.00 0.00 0.00 88 1019.1
20260507050015 57 0.0 1.7 0.00 0.00 0.00 88 1019.1
20260507045515 57 315 0.9 1.7 0.00 0.00 0.00 87 1019.1
20260507045015 57 315 0.9 1.7 0.00 0.00 0.00 87 1019.2
20260507044516 58 0.0 0.9 0.00 0.00 0.00 87 1019.2
20260507044016 58 0.0 0.9 0.00 0.00 0.00 85 1019.1
20260507043517 58 0.0 2.6 0.00 0.00 0.00 85 1019.1
20260507043016 58 315 0.9 2.6 0.00 0.00 0.00 84 1019.0
20260507042515 59 315 0.9 2.6 0.00 0.00 0.00 84 1018.9
20260507042017 59 315 0.9 1.7 0.00 0.00 0.00 83 1018.9
20260507041515 60 0.0 1.7 0.00 0.00 0.00 83 1018.9
20260507041015 61 315 0.9 1.7 0.00 0.00 0.00 83 1018.9
20260507040516 61 315 0.9 1.7 0.00 0.00 0.00 81 1018.8
20260507040015 61 0.0 1.7 0.00 0.00 0.00 81 1018.9
20260507035515 61 0.0 0.9 0.00 0.00 0.00 80 1018.8
20260507035015 62 0.0 1.7 0.00 0.00 0.00 80 1018.8
20260507034556 62 0.0 0.9 0.00 0.00 0.00 79 1018.7
20260507034015 62 315 0.9 2.6 0.00 0.00 0.00 79 1018.7
20260507033516 62 315 0.9 2.6 0.00 0.00 0.00 79 1018.7
20260507033016 62 0.0 0.0 0.00 0.00 0.00 77 1018.6
20260507032515 62 0.0 0.0 0.00 0.00 0.00 77 1018.5
20260507032017 62 0.0 0.9 0.00 0.00 0.00 77 1018.5
20260507031538 63 0.0 1.7 0.00 0.00 0.00 76 1018.3
20260507031018 63 0.0 1.7 0.00 0.00 0.00 76 1018.3
20260507030517 63 0.0 1.7 0.00 0.00 0.00 76 1018.3
20260507030017 63 315 0.9 2.6 0.00 0.00 0.00 74 1018.3
20260507025517 63 0.0 1.7 0.00 0.00 0.00 74 1018.3
20260507025037 63 315 1.7 3.5 0.00 0.00 0.00 74 1018.3
20260507024537 64 315 1.7 2.6 0.00 0.00 0.00 74 1018.1
20260507024017 64 315 1.7 2.6 0.00 0.00 0.00 73 1018.0
20260507023517 64 270 1.7 3.5 0.00 0.00 0.00 73 1018.0
20260507023017 64 293 0.9 4.3 0.00 0.00 0.00 73 1018.1
20260507022515 64 293 1.7 2.6 0.00 0.00 0.00 73 1017.9
20260507022017 65 270 1.7 4.3 0.00 0.00 0.00 72 1018.0
20260507021517 65 270 1.7 3.5 0.00 0.00 0.00 72 1017.8
20260507021017 65 293 1.7 3.5 0.00 0.00 0.00 72 1017.9
20260507020517 65 270 2.6 4.3 0.00 0.00 0.00 72 1017.8
20260507020017 65 293 2.6 5.2 0.00 0.00 0.00 72 1017.8
20260507015517 66 293 2.6 3.5 0.00 0.00 0.00 70 1017.7
20260507015017 66 293 3.5 7.0 0.00 0.00 0.00 69 1017.7
20260507014517 66 293 2.6 6.1 0.00 0.00 0.00 69 1017.7
20260507014017 67 315 2.6 6.1 0.00 0.00 0.00 69 1017.8
20260507013517 67 315 3.5 7.0 0.00 0.00 0.00 67 1017.8
20260507013017 67 315 2.6 6.1 0.00 0.00 0.00 66 1017.7
20260507012537 67 315 3.5 6.1 0.00 0.00 0.00 64 1017.7
20260507012017 68 315 2.6 4.3 0.00 0.00 0.00 64 1017.6
20260507011517 68 270 2.6 6.1 0.00 0.00 0.00 63 1017.6
20260507011017 68 248 2.6 7.0 0.00 0.00 0.00 63 1017.6
20260507010518 69 315 3.5 6.1 0.00 0.00 0.00 62 1017.6
20260507010017 69 315 3.5 7.0 0.00 0.00 0.00 62 1017.7
20260507005517 69 293 2.6 5.2 0.00 0.00 0.00 60 1017.7
20260507005057 69 338 3.5 7.8 0.00 0.00 0.00 62 1017.6
20260507004517 69 315 3.5 7.8 0.00 0.00 0.00 59 1017.6
20260507004017 70 248 3.5 7.0 0.00 0.00 0.00 59 1017.6
20260507003517 70 248 2.6 6.1 0.00 0.00 0.00 58 1017.5
20260507003017 70 293 2.6 4.3 0.00 0.00 0.00 58 1017.5
20260507002537 70 225 3.5 6.1 0.00 0.00 0.00 58 1017.5
20260507002018 70 293 2.6 7.0 0.00 0.00 0.00 58 1017.5
20260507001517 70 248 2.6 7.8 0.00 0.00 0.00 58 1017.4
20260507001017 70 248 3.5 7.0 0.00 0.00 0.00 58 1017.5
20260507000517 70 248 4.3 7.8 0.00 0.00 0.00 58 1017.4
20260507000017 71 270 2.6 6.1 0.00 0.00 0.00 58 1017.3
20260506235557 71 248 3.5 6.1 0.00 0.00 0.00 58 1017.3
20260506235038 71 293 3.5 9.6 0.00 0.00 0.00 58 1017.2
20260506234537 70 338 4.3 9.6 0.00 0.00 0.00 59 1017.2
20260506234037 71 270 4.3 8.7 0.00 0.00 0.00 59 1017.2
20260506233517 71 315 4.3 8.7 0.00 0.00 0.00 58 1017.2
20260506233017 71 315 4.3 8.7 0.00 0.00 0.00 59 1017.1
20260506232517 71 315 4.3 7.8 0.00 0.00 0.00 59 1017.2
20260506232017 72 293 3.5 9.6 0.00 0.00 0.00 58 1017.3
20260506231517 71 248 4.3 9.6 0.00 0.00 0.00 59 1017.3
20260506231037 71 270 4.3 9.6 0.00 0.00 0.00 59 1017.4
20260506230517 71 270 3.5 7.8 0.00 0.00 0.00 59 1017.4
20260506230017 71 315 3.5 7.8 0.00 0.00 0.00 58 1017.5
20260506225517 72 315 4.3 7.8 0.00 0.00 0.00 58 1017.5
20260506225057 72 315 4.3 9.6 0.00 0.00 0.00 58 1017.5
20260506224517 71 315 5.2 10.4 0.00 0.00 0.00 59 1017.5
20260506224037 72 315 5.2 10.4 0.00 0.00 0.00 58 1017.5
20260506223538 72 293 4.3 9.6 0.00 0.00 0.00 58 1017.7
20260506223017 72 315 4.3 7.8 0.00 0.00 0.00 58 1017.6
20260506222517 72 270 3.5 8.7 0.00 0.00 0.00 56 1017.6
20260506222017 72 248 4.3 7.8 0.00 0.00 0.00 56 1017.6
20260506221517 72 248 5.2 8.7 0.00 0.00 0.00 55 1017.6
20260506221017 72 293 4.3 8.7 0.00 0.00 0.00 56 1017.7
20260506220517 72 248 3.5 7.8 0.00 0.00 0.00 56 1017.8
20260506220017 73 315 4.3 8.7 0.00 0.00 0.00 54 1018.0
20260506215517 73 315 5.2 11.3 0.00 0.00 0.00 55 1017.8
20260506215017 73 270 4.3 7.8 0.00 0.00 0.00 55 1017.9
20260506214517 73 315 4.3 8.7 0.00 0.00 0.00 54 1017.8
20260506214057 73 270 4.3 9.6 0.00 0.00 0.00 55 1017.9
20260506213537 73 315 4.3 9.6 0.00 0.00 0.00 55 1018.0
20260506213017 74 315 4.3 8.7 0.00 0.00 0.00 52 1018.0
20260506212517 74 315 5.2 9.6 0.00 0.00 0.00 54 1018.0
20260506212017 73 315 5.2 10.4 0.00 0.00 0.00 54 1018.0
20260506211517 74 270 3.5 7.0 0.00 0.00 0.00 54 1018.0
20260506211017 73 315 3.5 9.6 0.00 0.00 0.00 55 1018.0
20260506210517 73 248 4.3 8.7 0.00 0.00 0.00 55 1018.0
20260506210017 73 315 4.3 8.7 0.00 0.00 0.00 54 1018.0
20260506205517 73 315 3.5 8.7 0.00 0.00 0.00 55 1018.1
20260506205037 73 248 4.3 8.7 0.00 0.00 0.00 54 1018.1
20260506204517 74 270 4.3 7.8 0.00 0.00 0.00 52 1018.2
20260506204017 73 315 3.5 7.8 0.00 0.00 0.00 54 1018.2
20260506203557 73 315 5.2 10.4 0.00 0.00 0.00 55 1018.3
20260506203017 73 315 4.3 10.4 0.00 0.00 0.00 52 1018.2
20260506202517 73 293 4.3 7.8 0.00 0.00 0.00 54 1018.1
20260506202057 73 315 4.3 9.6 0.00 0.00 0.00 52 1018.2
20260506201518 74 315 4.3 9.6 0.00 0.00 0.00 51 1018.2
20260506201017 74 315 4.3 8.7 0.00 0.00 0.00 51 1018.2
20260506200517 74 315 3.5 7.8 0.00 0.00 0.00 51 1018.2
20260506200017 74 315 3.5 7.8 0.00 0.00 0.00 50 1018.3
20260506195517 74 315 3.5 7.8 0.00 0.00 0.00 51 1018.3
20260506195017 74 248 3.5 7.0 0.00 0.00 0.00 52 1018.4
20260506194517 74 315 4.3 10.4 0.00 0.00 0.00 50 1018.5
20260506194017 74 0 2.6 9.6 0.00 0.00 0.00 51 1018.5
20260506193537 73 270 3.5 7.8 0.00 0.00 0.00 51 1018.5
20260506193017 73 315 4.3 8.7 0.00 0.00 0.00 54 1018.6
20260506192517 73 315 5.2 8.7 0.00 0.00 0.00 51 1018.7